timestamp,wind_dir_avg,wind_spd_avg,wind_spd_max_dir,wind_spd_gust,battery_voltage,lat,long
2021-08-03 00:04:00+00:00,189.0,0.55,187.0,0.64,12.73,47.59359,-54.27349
2021-08-03 00:14:01+00:00,189.0,1.12,194.0,1.25,12.65,47.59359,-54.27349
2021-08-03 00:24:01+00:00,180.0,0.72,182.0,0.8,12.65,47.59359,-54.27349
2021-08-03 00:34:01+00:00,197.0,1.04,196.0,1.17,12.65,47.59359,-54.27349
2021-08-03 00:44:01+00:00,148.0,0.7,142.0,0.88,12.65,47.59359,-54.27349
2021-08-03 00:54:01+00:00,56.0,1.32,56.0,1.52,12.65,47.59359,-54.27349
2021-08-03 01:04:01+00:00,104.0,0.5,123.0,0.96,12.65,47.59359,-54.27349
2021-08-03 01:14:01+00:00,103.0,1.55,125.0,2.81,12.65,47.59359,-54.27349
2021-08-03 01:24:01+00:00,126.0,2.92,125.0,3.13,12.65,47.59359,-54.27349
2021-08-03 01:34:01+00:00,77.0,1.76,108.0,2.26,12.65,47.59359,-54.27349
2021-08-03 01:44:01+00:00,114.0,2.39,110.0,2.88,12.65,47.59359,-54.27349
2021-08-03 01:54:01+00:00,166.0,4.07,164.0,5.11,12.65,47.59359,-54.27349
2021-08-03 02:04:01+00:00,157.0,4.34,157.0,4.72,12.65,47.59359,-54.27349
2021-08-03 02:14:00+00:00,165.0,5.36,163.0,6.96,12.57,47.59359,-54.27349
2021-08-03 02:24:00+00:00,151.0,7.98,149.0,8.84,12.57,47.59359,-54.27349
2021-08-03 02:34:00+00:00,144.0,7.73,141.0,8.73,12.57,47.59359,-54.27349
2021-08-03 02:44:00+00:00,154.0,5.9,162.0,7.0,12.57,47.59359,-54.27349
2021-08-03 02:54:00+00:00,161.0,7.81,160.0,8.55,12.57,47.59359,-54.27349
2021-08-03 03:04:00+00:00,165.0,8.5,165.0,9.87,12.57,47.59359,-54.27349
2021-08-03 03:14:01+00:00,153.0,8.13,153.0,8.93,12.57,47.59359,-54.27349
2021-08-03 03:24:01+00:00,161.0,7.57,161.0,8.17,12.57,47.59359,-54.27349
2021-08-03 03:34:01+00:00,157.0,7.79,154.0,8.74,12.57,47.59359,-54.27349
2021-08-03 03:44:01+00:00,154.0,9.43,146.0,11.32,12.57,47.59359,-54.27349
2021-08-03 03:54:01+00:00,146.0,6.75,140.0,7.87,12.57,47.59359,-54.27349
2021-08-03 04:04:01+00:00,150.0,7.39,147.0,9.38,12.57,47.59359,-54.27349
2021-08-03 04:14:01+00:00,153.0,6.11,152.0,7.38,12.57,47.59359,-54.27349
2021-08-03 04:24:01+00:00,160.0,5.56,157.0,6.74,12.57,47.59359,-54.27349
2021-08-03 04:34:01+00:00,177.0,5.85,178.0,6.68,12.57,47.59359,-54.27349
2021-08-03 04:44:01+00:00,167.0,4.13,168.0,5.29,12.57,47.59359,-54.27349
2021-08-03 04:54:01+00:00,171.0,3.24,172.0,5.01,12.57,47.59359,-54.27349
2021-08-03 05:04:01+00:00,157.0,3.43,177.0,4.67,12.57,47.59359,-54.27349
2021-08-03 05:14:00+00:00,178.0,4.38,182.0,7.42,12.57,47.59359,-54.27349
2021-08-03 05:24:00+00:00,173.0,3.85,173.0,4.68,12.57,47.59359,-54.27349
2021-08-03 05:34:00+00:00,206.0,3.29,211.0,4.08,12.57,47.59359,-54.27349
2021-08-03 05:44:00+00:00,192.0,6.56,197.0,7.35,12.57,47.59359,-54.27349
2021-08-03 05:54:00+00:00,246.0,2.15,252.0,2.84,12.57,47.59359,-54.27349
2021-08-03 06:04:00+00:00,244.0,3.51,248.0,5.17,12.57,47.59359,-54.27349
2021-08-03 06:14:01+00:00,260.0,4.9,260.0,6.39,12.57,47.59359,-54.27349
2021-08-03 06:24:01+00:00,217.0,10.3,214.0,12.09,12.57,47.59359,-54.27349
2021-08-03 06:34:01+00:00,216.0,10.7,218.0,13.75,12.57,47.59359,-54.27349
2021-08-03 06:44:01+00:00,212.0,12.03,212.0,13.79,12.57,47.59359,-54.27349
2021-08-03 06:54:01+00:00,217.0,12.95,220.0,14.77,12.57,47.59359,-54.27349
2021-08-03 07:04:01+00:00,216.0,11.84,212.0,13.65,12.57,47.59359,-54.27349
2021-08-03 07:14:01+00:00,218.0,11.71,216.0,13.5,12.49,47.59359,-54.27349
2021-08-03 07:24:01+00:00,219.0,11.8,225.0,13.47,12.49,47.59359,-54.27349
2021-08-03 07:34:01+00:00,219.0,10.82,219.0,12.8,12.49,47.59359,-54.27349
2021-08-03 07:44:01+00:00,225.0,10.26,229.0,11.99,12.49,47.59359,-54.27349
2021-08-03 07:54:01+00:00,229.0,10.59,222.0,12.81,12.49,47.59359,-54.27349
2021-08-03 08:04:01+00:00,233.0,10.17,238.0,12.82,12.49,47.59359,-54.27349
2021-08-03 08:14:00+00:00,231.0,9.91,229.0,11.71,12.49,47.59359,-54.27349
2021-08-03 08:24:00+00:00,232.0,9.03,229.0,10.29,12.49,47.59359,-54.27349
2021-08-03 08:34:00+00:00,231.0,9.06,227.0,11.1,12.49,47.59359,-54.27349
2021-08-03 08:44:00+00:00,239.0,9.3,238.0,10.54,12.49,47.59359,-54.27349
2021-08-03 08:54:00+00:00,243.0,8.42,243.0,9.52,12.49,47.59359,-54.27349
2021-08-03 09:04:00+00:00,253.0,8.25,251.0,9.46,12.49,47.59359,-54.27349
2021-08-03 09:14:01+00:00,275.0,13.0,277.0,15.2,12.41,47.59359,-54.27349
2021-08-03 09:24:01+00:00,300.0,13.98,302.0,16.64,12.41,47.59359,-54.27349
2021-08-03 09:34:01+00:00,310.0,10.26,307.0,12.62,12.41,47.59359,-54.27349
2021-08-03 09:44:01+00:00,311.0,10.35,321.0,12.56,12.41,47.59359,-54.27349
2021-08-03 09:54:01+00:00,310.0,8.91,311.0,10.33,12.41,47.59359,-54.27349
2021-08-03 10:04:01+00:00,319.0,12.72,322.0,15.37,12.41,47.59359,-54.27349
2021-08-03 10:14:01+00:00,316.0,13.35,306.0,15.2,13.21,47.59359,-54.27349
2021-08-03 10:24:01+00:00,305.0,12.59,310.0,14.69,13.21,47.59359,-54.27349
2021-08-03 10:34:01+00:00,305.0,12.18,304.0,14.25,13.21,47.59359,-54.27349
2021-08-03 10:44:01+00:00,310.0,10.11,320.0,11.33,13.21,47.59359,-54.27349
2021-08-03 10:54:01+00:00,305.0,10.36,309.0,12.7,13.21,47.59359,-54.27349
2021-08-03 11:04:01+00:00,310.0,9.9,307.0,12.67,13.21,47.59359,-54.27349
2021-08-03 11:14:00+00:00,300.0,7.36,298.0,10.04,13.84,47.59359,-54.27349
2021-08-03 11:24:00+00:00,298.0,7.44,287.0,9.86,13.84,47.59359,-54.27349
2021-08-03 11:34:00+00:00,300.0,7.57,300.0,8.91,13.84,47.59359,-54.27349
2021-08-03 11:44:00+00:00,303.0,10.25,299.0,11.54,13.84,47.59359,-54.27349
2021-08-03 11:54:00+00:00,302.0,7.68,307.0,8.75,13.84,47.59359,-54.27349
2021-08-03 12:04:00+00:00,295.0,9.14,303.0,10.04,13.84,47.59359,-54.27349
2021-08-03 12:14:01+00:00,304.0,9.83,303.0,12.54,13.68,47.59359,-54.27349
2021-08-03 12:24:01+00:00,298.0,8.11,299.0,9.07,13.68,47.59359,-54.27349
2021-08-03 12:34:01+00:00,300.0,10.77,308.0,12.4,13.68,47.59359,-54.27349
2021-08-03 12:44:01+00:00,289.0,9.39,297.0,10.58,13.68,47.59359,-54.27349
2021-08-03 12:54:01+00:00,288.0,8.51,283.0,10.27,13.68,47.59359,-54.27349
2021-08-03 13:04:01+00:00,284.0,9.37,288.0,10.25,13.68,47.59359,-54.27349
2021-08-03 13:14:00+00:00,282.0,8.51,284.0,10.19,13.68,47.59359,-54.27349
2021-08-03 13:24:00+00:00,291.0,10.61,298.0,13.43,13.68,47.59359,-54.27349
2021-08-03 13:34:00+00:00,298.0,13.42,291.0,16.58,13.68,47.59359,-54.27349
2021-08-03 13:44:00+00:00,308.0,10.25,311.0,12.38,13.68,47.59359,-54.27349
2021-08-03 13:54:00+00:00,287.0,9.28,289.0,10.57,13.68,47.59359,-54.27349
2021-08-03 14:04:00+00:00,303.0,10.24,304.0,11.49,13.68,47.59359,-54.27349
2021-08-03 14:14:01+00:00,293.0,8.63,296.0,10.66,13.84,47.59359,-54.27349
2021-08-03 14:24:01+00:00,286.0,8.58,291.0,9.69,13.84,47.59359,-54.27349
2021-08-03 14:34:01+00:00,280.0,8.23,283.0,11.47,13.84,47.59359,-54.27349
2021-08-03 14:44:01+00:00,270.0,9.76,278.0,11.4,13.84,47.59359,-54.27349
2021-08-03 14:54:01+00:00,271.0,8.66,271.0,9.72,13.84,47.59359,-54.27349
2021-08-03 15:04:01+00:00,267.0,8.2,265.0,8.71,13.84,47.59359,-54.27349
2021-08-03 15:14:01+00:00,265.0,7.31,264.0,8.17,13.84,47.59359,-54.27349
2021-08-03 15:24:01+00:00,262.0,8.56,256.0,11.18,13.84,47.59359,-54.27349
2021-08-03 15:34:01+00:00,272.0,8.69,274.0,9.48,13.84,47.59359,-54.27349
2021-08-03 15:44:01+00:00,265.0,7.6,266.0,8.54,13.84,47.59359,-54.27349
2021-08-03 15:54:01+00:00,262.0,8.46,256.0,10.17,13.84,47.59359,-54.27349
2021-08-03 16:04:01+00:00,270.0,5.56,270.0,6.74,13.84,47.59359,-54.27349
2021-08-03 16:14:01+00:00,265.0,8.62,264.0,10.11,13.92,47.59359,-54.27349
2021-08-03 16:24:01+00:00,262.0,10.21,264.0,11.48,13.92,47.59359,-54.27349
2021-08-03 16:34:01+00:00,254.0,6.6,258.0,7.28,13.92,47.59359,-54.27349
2021-08-03 16:44:01+00:00,266.0,10.46,266.0,12.53,13.92,47.59359,-54.27349
2021-08-03 16:54:01+00:00,268.0,9.27,272.0,11.18,13.92,47.59359,-54.27349
2021-08-03 17:04:01+00:00,270.0,7.59,268.0,8.69,13.92,47.59359,-54.27349
2021-08-03 17:14:01+00:00,254.0,7.9,255.0,10.79,14.32,47.59359,-54.27349
2021-08-03 17:24:01+00:00,276.0,7.64,275.0,8.71,14.32,47.59359,-54.27349
2021-08-03 17:34:01+00:00,262.0,8.11,259.0,8.93,14.32,47.59359,-54.27349
2021-08-03 17:44:01+00:00,264.0,7.73,272.0,8.52,14.32,47.59359,-54.27349
2021-08-03 17:54:01+00:00,266.0,5.96,271.0,7.26,14.32,47.59359,-54.27349
2021-08-03 18:04:01+00:00,255.0,6.27,255.0,7.29,14.32,47.59359,-54.27349
2021-08-03 18:14:01+00:00,260.0,7.97,270.0,9.25,14.08,47.59359,-54.27349
2021-08-03 18:24:01+00:00,240.0,7.27,245.0,7.88,14.08,47.59359,-54.27349
2021-08-03 18:34:01+00:00,249.0,8.86,254.0,10.25,14.08,47.59359,-54.27349
2021-08-03 18:44:01+00:00,250.0,9.11,255.0,10.42,14.08,47.59359,-54.27349
2021-08-03 18:54:01+00:00,250.0,8.26,251.0,9.18,14.08,47.59359,-54.27349
2021-08-03 19:04:01+00:00,252.0,9.99,252.0,11.15,14.08,47.59359,-54.27349
2021-08-03 19:14:01+00:00,255.0,8.34,261.0,9.64,13.84,47.59359,-54.27349
2021-08-03 19:24:01+00:00,253.0,9.28,254.0,10.61,13.84,47.59359,-54.27349
2021-08-03 19:34:01+00:00,250.0,11.05,250.0,12.35,13.84,47.59359,-54.27349
2021-08-03 19:44:01+00:00,255.0,9.99,258.0,10.87,13.84,47.59359,-54.27349
2021-08-03 19:54:01+00:00,260.0,10.79,259.0,12.19,13.84,47.59359,-54.27349
2021-08-03 20:04:01+00:00,259.0,8.66,258.0,9.51,13.84,47.59359,-54.27349
2021-08-03 20:14:01+00:00,252.0,9.18,253.0,10.14,13.68,47.59359,-54.27349
2021-08-03 20:24:01+00:00,247.0,9.25,244.0,10.27,13.68,47.59359,-54.27349
2021-08-03 20:34:01+00:00,246.0,10.19,240.0,11.92,13.68,47.59359,-54.27349
2021-08-03 20:44:01+00:00,250.0,7.81,247.0,9.3,13.68,47.59359,-54.27349
2021-08-03 20:54:01+00:00,253.0,9.56,254.0,10.76,13.68,47.59359,-54.27349
2021-08-03 21:04:01+00:00,247.0,7.81,252.0,9.64,13.68,47.59359,-54.27349
2021-08-03 21:14:01+00:00,249.0,8.87,251.0,10.03,13.6,47.59359,-54.27349
2021-08-03 21:24:01+00:00,256.0,9.58,255.0,10.96,13.6,47.59359,-54.27349
2021-08-03 21:34:01+00:00,251.0,8.81,253.0,9.66,13.6,47.59359,-54.27349
2021-08-03 21:44:01+00:00,252.0,9.41,253.0,10.45,13.6,47.59359,-54.27349
2021-08-03 21:54:01+00:00,242.0,9.34,245.0,10.87,13.6,47.59359,-54.27349
2021-08-03 22:04:01+00:00,243.0,10.36,242.0,11.44,13.6,47.59359,-54.27349
2021-08-03 22:14:01+00:00,250.0,10.26,249.0,11.85,13.44,47.59359,-54.27349
2021-08-03 22:24:01+00:00,247.0,10.44,250.0,11.11,13.44,47.59359,-54.27349
2021-08-03 22:34:01+00:00,253.0,9.87,249.0,11.21,13.44,47.59359,-54.27349
2021-08-03 22:44:01+00:00,253.0,9.79,259.0,10.7,13.44,47.59359,-54.27349
2021-08-03 22:54:01+00:00,252.0,8.46,249.0,9.71,13.44,47.59359,-54.27349
2021-08-03 23:04:01+00:00,248.0,7.81,240.0,9.05,13.44,47.59359,-54.27349
2021-08-03 23:14:01+00:00,240.0,7.74,241.0,8.6,13.05,47.59359,-54.27349
2021-08-03 23:24:01+00:00,242.0,8.3,243.0,9.13,13.05,47.59359,-54.27349
2021-08-03 23:34:01+00:00,240.0,8.25,238.0,8.93,13.05,47.59359,-54.27349
2021-08-03 23:44:01+00:00,240.0,8.49,244.0,9.68,13.05,47.59359,-54.27349
2021-08-03 23:54:01+00:00,239.0,8.79,242.0,10.05,13.05,47.59359,-54.27349
